Mason, MI

4:15 AM EST on February 21, 2017 (GMT -0500)
Mason Jewett

Weather History for KTEW - December, 2013

Change the Weather History Date:

Thursday, December 5, 2013

  Actual Average (KLAN) Record (KLAN)
Temperature  
Mean Temperature 44 °F -  
Max Temperature 59 °F 38 °F 69 °F (2001)
Min Temperature 29 °F 25 °F -11 °F (1886)
Degree Days  
Heating Degree Days 21    
Moisture  
Dew Point 32 °F    
Average Humidity 73    
Maximum Humidity 86    
Minimum Humidity 64    
Precipitation  
Precipitation 0.00 in - - ()
Sea Level Pressure  
Sea Level Pressure 29.86 in    
Wind  
Wind Speed 11 mph (WSW)    
Max Wind Speed 21 mph    
Max Gust Speed 31 mph    
Visibility 10 miles    
Events      
Averages and records for this station are not official NWS values.
T = Trace of Precipitation, MM = Missing Value Source: NWS Daily Summary

Daily Weather History Graph

Daily Weather History Graph

Search for Another Location

Airport or City:

Trip Planner

Search our weather history database for the weather conditions in past years. The results will help you decide how hot, cold, wet, or windy it might be!

Date:

Astronomy

Dec. 05, 2013 Rise Set
Actual Time 7:52 AM EST 5:04 PM EST
Civil Twilight 7:20 AM EST 5:36 PM EST
Nautical Twilight 6:45 AM EST 6:11 PM EST
Astronomical Twilight 6:11 AM EST 6:45 PM EST
Moon 10:09 AM EST (12/5) 8:26 PM EST (12/5)
Length of Visible Light 10h 15m
Length of Day
9h 12m
Waxing Crescent, 10% of the Moon is Illuminated
Dec 5
Waxing Crescent
Dec 9
First Quarter
Dec 17
Full
Dec 25
Last Quarter
Jan 1
New

Hourly Weather History & Observations

Time (EST) Temp. Windchill Dew Point Humidity Pressure Visibility Wind Dir Wind Speed Gust Speed Precip Events Conditions
12:12 AM 59.0 °F - 54.0 °F 83% 29.59 in 7.0 mi SSW 6.9 mph - N/A   Overcast
12:33 AM 58.6 °F - 53.8 °F 84% 29.59 in 7.0 mi SSW 4.6 mph - N/A   Overcast
12:53 AM 57.7 °F - 53.6 °F 86% 29.57 in 7.0 mi SSW 4.6 mph - N/A   Mostly Cloudy
1:12 AM 57.7 °F - 53.6 °F 86% 29.58 in 7.0 mi SSW 4.6 mph - N/A   Overcast
1:33 AM 58.1 °F - 53.6 °F 85% 29.59 in 7.0 mi SSW 5.8 mph - N/A   Overcast
1:52 AM 58.1 °F - 53.6 °F 85% 29.59 in 7.0 mi SW 8.1 mph - N/A   Overcast
2:12 AM 59.0 °F - 53.6 °F 82% 29.59 in 10.0 mi SW 13.8 mph 23.0 mph N/A   Overcast
2:33 AM 59.4 °F - 53.2 °F 80% 29.59 in 10.0 mi WSW 11.5 mph 21.9 mph N/A   Overcast
2:52 AM 58.6 °F - 51.8 °F 78% 29.60 in 10.0 mi WSW 11.5 mph 17.3 mph N/A   Overcast
3:12 AM 58.3 °F - 51.1 °F 77% 29.60 in 10.0 mi SW 10.4 mph 20.7 mph N/A   Overcast
3:33 AM 58.1 °F - 50.5 °F 76% 29.61 in 10.0 mi WSW 17.3 mph 27.6 mph N/A   Overcast
3:52 AM 55.0 °F - 48.4 °F 78% 29.64 in 7.0 mi West 17.3 mph 28.8 mph N/A   Overcast
4:12 AM 52.0 °F - 46.4 °F 81% 29.65 in 7.0 mi West 11.5 mph 17.3 mph N/A   Overcast
4:33 AM 50.0 °F - 43.7 °F 79% 29.64 in 7.0 mi SW 8.1 mph 19.6 mph N/A   Overcast
4:52 AM 50.0 °F - 43.9 °F 79% 29.66 in 7.0 mi WSW 10.4 mph 17.3 mph N/A   Overcast
5:12 AM 48.6 °F - 41.4 °F 76% 29.67 in 10.0 mi SW 17.3 mph 28.8 mph N/A   Overcast
5:33 AM 47.1 °F - 37.9 °F 70% 29.68 in 10.0 mi SW 17.3 mph 31.1 mph N/A   Mostly Cloudy
5:52 AM 45.9 °F 40.0 °F 36.7 °F 70% 29.69 in 10.0 mi WSW 12.7 mph 21.9 mph N/A   Scattered Clouds
6:13 AM 45.0 °F 38.5 °F 36.5 °F 72% 29.71 in 10.0 mi WSW 13.8 mph 20.7 mph N/A   Overcast
6:32 AM 44.4 °F 40.0 °F 35.8 °F 72% 29.73 in 10.0 mi WSW 8.1 mph 24.2 mph N/A   Overcast
6:53 AM 43.7 °F 36.6 °F 35.2 °F 72% 29.74 in 10.0 mi West 15.0 mph 24.2 mph N/A   Overcast
7:13 AM 42.8 °F 36.2 °F 34.7 °F 73% 29.75 in 10.0 mi WSW 12.7 mph 20.7 mph N/A   Overcast
7:32 AM 41.9 °F 35.0 °F 34.0 °F 73% 29.75 in 10.0 mi West 12.7 mph 21.9 mph N/A   Overcast
7:53 AM 39.4 °F 31.4 °F 32.0 °F 75% 29.76 in 10.0 mi West 13.8 mph 24.2 mph N/A   Scattered Clouds
8:13 AM - - - N/A% - - North - - N/A   Unknown
8:34 AM 37.0 °F 29.8 °F 32.0 °F 82% 29.76 in 10.0 mi WSW 10.4 mph 18.4 mph N/A   Mostly Cloudy
8:54 AM 36.9 °F 29.6 °F 31.8 °F 82% 29.77 in 10.0 mi SW 10.4 mph 19.6 mph N/A   Overcast
9:14 AM 36.7 °F 28.4 °F 31.5 °F 81% 29.80 in 10.0 mi WSW 12.7 mph 23.0 mph N/A   Overcast
9:34 AM 36.5 °F 29.2 °F 30.9 °F 80% 29.83 in 10.0 mi WSW 10.4 mph 20.7 mph N/A   Overcast
9:54 AM 36.5 °F 27.8 °F 30.6 °F 79% 29.84 in 10.0 mi WSW 13.8 mph 24.2 mph N/A   Overcast
10:14 AM 36.1 °F 27.3 °F 30.0 °F 78% 29.84 in 10.0 mi West 13.8 mph 23.0 mph N/A   Overcast
10:34 AM 36.5 °F 27.8 °F 30.2 °F 78% 29.85 in 10.0 mi West 13.8 mph 20.7 mph N/A   Overcast
10:54 AM 36.7 °F 28.9 °F 30.2 °F 77% 29.86 in 10.0 mi West 11.5 mph 23.0 mph N/A   Overcast
11:13 AM 36.5 °F 28.2 °F 29.3 °F 75% 29.86 in 10.0 mi West 12.7 mph 23.0 mph N/A   Overcast
11:34 AM 37.0 °F 28.1 °F 28.6 °F 71% 29.86 in 10.0 mi West 15.0 mph 21.9 mph N/A   Overcast
11:54 AM 36.5 °F 27.8 °F 28.9 °F 74% 29.87 in 10.0 mi West 13.8 mph 23.0 mph N/A   Overcast
12:13 PM 36.5 °F 27.0 °F 27.9 °F 71% 29.88 in 10.0 mi West 16.1 mph 24.2 mph N/A   Overcast
12:34 PM 36.5 °F 25.7 °F 27.7 °F 70% 29.88 in 10.0 mi West 20.7 mph 25.3 mph N/A   Overcast
12:54 PM 36.5 °F 26.3 °F 27.3 °F 69% 29.88 in 10.0 mi West 18.4 mph 26.5 mph N/A   Overcast
1:13 PM 37.2 °F 27.9 °F 26.6 °F 65% 29.89 in 10.0 mi West 16.1 mph 24.2 mph N/A   Overcast
1:34 PM 36.5 °F 28.7 °F 26.1 °F 66% 29.90 in 10.0 mi WSW 11.5 mph 21.9 mph N/A   Overcast
1:54 PM 37.0 °F 29.3 °F 25.7 °F 64% 29.91 in 10.0 mi WSW 11.5 mph 25.3 mph N/A   Overcast
2:13 PM 36.5 °F 27.8 °F 25.9 °F 65% 29.91 in 10.0 mi West 13.8 mph 19.6 mph N/A   Mostly Cloudy
2:34 PM 35.8 °F 26.5 °F 24.8 °F 64% 29.90 in 10.0 mi West 15.0 mph 21.9 mph N/A   Mostly Cloudy
2:54 PM 35.6 °F 26.6 °F 24.4 °F 64% 29.91 in 10.0 mi West 13.8 mph 20.7 mph N/A   Mostly Cloudy
3:13 PM 35.6 °F 27.5 °F 24.6 °F 64% 29.93 in 10.0 mi West 11.5 mph - N/A   Mostly Cloudy
3:34 PM 35.1 °F 25.5 °F 24.8 °F 66% 29.94 in 10.0 mi West 15.0 mph 19.6 mph N/A   Mostly Cloudy
3:54 PM 34.3 °F 24.6 °F 23.9 °F 66% 29.95 in 10.0 mi West 15.0 mph 21.9 mph N/A   Mostly Cloudy
4:13 PM 33.3 °F 24.6 °F 23.2 °F 67% 29.97 in 10.0 mi West 11.5 mph 20.7 mph N/A   Scattered Clouds
4:34 PM 32.7 °F 23.4 °F 22.1 °F 65% 29.97 in 10.0 mi West 12.7 mph - N/A   Clear
4:54 PM 32.0 °F 22.1 °F 22.1 °F 67% 30.01 in 10.0 mi West 13.8 mph - N/A   Clear
5:13 PM 31.6 °F 22.1 °F 21.9 °F 67% 30.01 in 10.0 mi West 12.7 mph - N/A   Clear
5:34 PM 31.1 °F 23.1 °F 22.1 °F 69% 30.02 in 10.0 mi West 9.2 mph - N/A   Clear
5:54 PM 31.1 °F 23.7 °F 22.5 °F 70% 30.03 in 10.0 mi West 8.1 mph - N/A   Scattered Clouds
6:13 PM 30.9 °F 23.5 °F 22.6 °F 71% 30.02 in 10.0 mi West 8.1 mph - N/A   Scattered Clouds
6:34 PM 30.9 °F 22.8 °F 22.3 °F 70% 30.02 in 10.0 mi West 9.2 mph - N/A   Scattered Clouds
6:54 PM 30.6 °F 20.7 °F 21.2 °F 68% 30.03 in 10.0 mi West 12.7 mph - N/A   Scattered Clouds
7:13 PM 30.6 °F 21.2 °F 21.7 °F 70% 30.05 in 10.0 mi West 11.5 mph - N/A   Clear
7:34 PM 30.4 °F 22.9 °F 21.7 °F 70% 30.06 in 10.0 mi West 8.1 mph - N/A   Scattered Clouds
7:54 PM 30.6 °F 23.1 °F 22.3 °F 71% 30.08 in 10.0 mi West 8.1 mph - N/A   Mostly Cloudy
8:13 PM 30.4 °F 23.6 °F 22.1 °F 71% 30.09 in 10.0 mi West 6.9 mph 16.1 mph N/A   Overcast
8:34 PM 30.0 °F 20.0 °F 21.6 °F 71% 30.09 in 10.0 mi West 12.7 mph 18.4 mph N/A   Mostly Cloudy
8:54 PM 29.8 °F 20.3 °F 21.2 °F 70% 30.07 in 10.0 mi West 11.5 mph 18.4 mph N/A   Scattered Clouds
9:13 PM 29.7 °F 19.1 °F 21.2 °F 71% 30.07 in 10.0 mi West 13.8 mph - N/A   Scattered Clouds
9:34 PM 29.7 °F 20.7 °F 21.2 °F 71% 30.09 in 10.0 mi West 10.4 mph - N/A   Scattered Clouds
9:54 PM 29.7 °F 21.3 °F 21.2 °F 71% 30.11 in 10.0 mi West 9.2 mph 17.3 mph N/A   Mostly Cloudy
10:14 PM 29.7 °F 20.7 °F 21.7 °F 72% 30.09 in 10.0 mi West 10.4 mph - N/A   Overcast
10:34 PM 29.7 °F 22.8 °F 21.6 °F 72% 30.12 in 10.0 mi West 6.9 mph - N/A   Mostly Cloudy
10:54 PM 29.7 °F 21.3 °F 22.1 °F 73% 30.13 in 10.0 mi West 9.2 mph - N/A   Mostly Cloudy
11:14 PM 29.5 °F 21.1 °F 22.1 °F 74% 30.11 in 10.0 mi West 9.2 mph - N/A   Mostly Cloudy
11:34 PM 29.3 °F 20.8 °F 22.1 °F 75% 30.12 in 10.0 mi West 9.2 mph - N/A   Mostly Cloudy
11:54 PM 29.3 °F 21.5 °F 21.9 °F 74% 30.12 in 10.0 mi West 8.1 mph - N/A   Mostly Cloudy